TimeCST,TemperatureF,Dew PointF,Humidity,Sea Level PressureIn,VisibilityMPH,Wind Direction,Wind SpeedMPH,Gust SpeedMPH,PrecipitationIn,Events,Conditions,WindDirDegrees,DateUTC
12:54 AM,15.1,12.0,88,30.18,5.0,SSE,3.5,-,N/A,,Clear,150,2012-11-14 06:54:00
1:54 AM,12.9,10.9,92,30.17,4.0,Calm,Calm,-,N/A,,Clear,0,2012-11-14 07:54:00
2:39 AM,15.8,12.2,86,30.07,2.5,Calm,Calm,-,N/A,,Clear,0,2012-11-14 08:39:00
2:49 AM,12.2,10.4,92,30.07,3.0,Calm,Calm,-,N/A,,Clear,0,2012-11-14 08:49:00
2:54 AM,14.0,10.0,84,30.17,3.0,Calm,Calm,-,N/A,,Clear,0,2012-11-14 08:54:00
3:01 AM,17.6,14.0,86,30.07,2.0,Calm,Calm,-,N/A,,Clear,0,2012-11-14 09:01:00
3:17 AM,12.2,8.6,85,30.07,1.5,Calm,Calm,-,N/A,,Clear,0,2012-11-14 09:17:00
3:23 AM,15.8,12.2,86,30.07,3.0,South,3.5,-,N/A,,Clear,190,2012-11-14 09:23:00
3:54 AM,15.1,10.9,84,30.16,3.0,Calm,Calm,-,N/A,,Clear,0,2012-11-14 09:54:00
4:04 AM,17.6,14.0,86,30.06,2.5,South,5.8,-,N/A,,Clear,190,2012-11-14 10:04:00
4:12 AM,15.8,12.2,86,30.06,5.0,SSW,4.6,-,N/A,,Clear,210,2012-11-14 10:12:00
4:54 AM,23.0,19.9,88,30.14,10.0,SW,6.9,-,N/A,,Clear,220,2012-11-14 10:54:00
5:54 AM,18.0,15.1,88,30.13,4.0,SE,3.5,-,N/A,,Clear,130,2012-11-14 11:54:00
6:00 AM,19.4,15.8,86,30.03,1.8,SE,4.6,-,N/A,,Clear,130,2012-11-14 12:00:00
6:09 AM,17.6,15.8,93,30.03,0.8,SSE,3.5,-,N/A,,Clear,150,2012-11-14 12:09:00
6:13 AM,17.6,15.8,93,30.03,2.5,SE,4.6,-,N/A,,Clear,140,2012-11-14 12:13:00
6:20 AM,17.6,15.8,93,30.03,5.0,SE,4.6,-,N/A,,Clear,130,2012-11-14 12:20:00
6:54 AM,18.0,16.0,92,30.12,7.0,South,6.9,-,N/A,,Clear,170,2012-11-14 12:54:00
7:54 AM,16.0,14.0,92,30.12,7.0,SSW,13.8,-,N/A,,Clear,210,2012-11-14 13:54:00
8:54 AM,21.9,19.0,89,30.11,8.0,SSW,11.5,-,N/A,,Clear,210,2012-11-14 14:54:00
9:54 AM,23.0,21.9,96,30.10,6.0,South,6.9,-,N/A,,Clear,180,2012-11-14 15:54:00
10:54 AM,30.9,26.1,82,30.09,10.0,SSW,10.4,-,N/A,,Clear,200,2012-11-14 16:54:00
11:54 AM,35.1,27.0,72,30.06,10.0,SSW,12.7,-,N/A,,Clear,200,2012-11-14 17:54:00
12:54 PM,37.9,28.0,68,30.04,10.0,SW,11.5,-,N/A,,Overcast,230,2012-11-14 18:54:00
1:54 PM,37.9,28.9,70,30.03,10.0,SW,8.1,-,N/A,,Overcast,230,2012-11-14 19:54:00
2:54 PM,39.0,28.9,67,30.02,10.0,WSW,8.1,-,N/A,,Scattered Clouds,250,2012-11-14 20:54:00
3:54 PM,37.9,28.9,70,30.01,10.0,SW,10.4,-,N/A,,Clear,220,2012-11-14 21:54:00
4:54 PM,37.0,28.0,70,30.00,10.0,SW,10.4,-,N/A,,Clear,220,2012-11-14 22:54:00
5:54 PM,37.0,28.0,70,30.01,10.0,SW,15.0,-,N/A,,Clear,220,2012-11-14 23:54:00
6:54 PM,37.0,28.0,70,30.02,10.0,SW,16.1,-,N/A,,Clear,230,2012-11-15 00:54:00
7:54 PM,36.0,28.0,73,30.05,10.0,West,13.8,21.9,N/A,,Clear,260,2012-11-15 01:54:00
8:54 PM,35.1,27.0,72,30.06,10.0,WSW,11.5,-,N/A,,Clear,250,2012-11-15 02:54:00
9:15 PM,33.8,26.6,75,29.99,10.0,WSW,16.1,-,N/A,,Clear,250,2012-11-15 03:15:00
9:54 PM,34.0,26.1,73,30.07,10.0,WSW,19.6,-,N/A,,Clear,250,2012-11-15 03:54:00
10:54 PM,30.9,25.0,79,30.10,10.0,West,12.7,-,N/A,,Clear,270,2012-11-15 04:54:00
11:54 PM,30.0,24.1,79,30.13,10.0,West,24.2,-,N/A,,Clear,280,2012-11-15 05:54:00